Regional Weather Roundup
Issued by NWS Spokane, WA

Home | Current Version | Previous Version | Text Only | Print | Product List | Glossary On
Versions: 1 2 3 4 5 6 7 8 9 10 11 12 13 14 15 16 17 18 19 20 21 22 23 24 25 26 27 28 29 30 31 32 33 34 35 36 37 38 39 40 41 42 43 44 45 46 47 48 49 50
606
NZUS01 KOTX 200225
RWROTX

Eastern Washington/Northern Idaho Roundup
National Weather Service, Spokane WA
600 PM PST THU JAN 19 2017

Note: "fair" indicated few or no clouds below 12,000 feet with no
significant weather and/or obstructions to visibility.

...Northeast Washington and Northern Idaho Panhandle...

CITY           SKY/WX    TMP DP  RH WIND       PRES   REMARKS
Spokane Intl   PTCLDY    34  30  85 SE5       29.58S WCI  30
Spokane Downto PTCLDY    35  32  88 N3        29.60S
Coeur d Alene  PTCLDY    37  32  82 S7        29.60S
Deer Park      MOCLDY    36  31  82 SE5       29.59S
Sandpoint      CLOUDY    36  36 100 S5        29.59S
Bonners Ferry  CLOUDY    37  36  93 S7        29.57S

...Southeast Washington and southern Idaho Panhandle...

CITY           SKY/WX    TMP DP  RH WIND       PRES   REMARKS
Walla Walla    CLOUDY    39  32  76 E3        29.59S
Pullman/Moscow PTCLDY    34  31  88 E13       29.61F WCI  25
Lewiston       PTCLDY    36  32  85 SE8       29.64S
Lowell           N/A     33  32  96 CALM      29.69F
Grangeville    CLOUDY    32  32 100 W3        29.61S

...Columbia Basin...

CITY           SKY/WX    TMP DP  RH WIND       PRES   REMARKS
Ephrata        CLOUDY    34  29  82 N3        29.57R HAZE
Moses Lake     FOG       30  27  88 CALM      29.58S VSB 1/4
Pasco          CLEAR     36  34  92 SE6       29.60S
Richland       CLEAR     31  30  96 N5        29.60S FOG     WCI  27
Hermiston      CLOUDY    36  32  85 E3        29.59S FOG
Pendleton      CLOUDY    40  35  83 S3        29.57S

...East Slopes Cascades...

CITY           SKY/WX    TMP DP  RH WIND       PRES   REMARKS
The Dalles     PTCLDY    32  30  92 SW3       29.61S FOG
Yakima         FOG       35  33  92 CALM      29.58S VSB 3/4
Ellensburg     CLOUDY    34  31  88 CALM      29.54S FOG
Stampede Pass  SNOW      31  29  92 CALM      29.47S VSB 1/2
Wenatchee      CLOUDY    30  28  92 CALM      29.57S
Omak           CLOUDY    34  30  85 SE5       29.58R WCI  30
Sunnyside      FOG       23  22  96 SW3       29.58S VSB 1

...Southern British Columbia...

CITY           SKY/WX    TMP DP  RH WIND       PRES   REMARKS
Penticton      LGT RAIN  37  34  87 S21       29.53S
Cranbrook      MOCLDY    37  30  75 SE9       29.51S
Osoyoos          N/A     37  34  87 S6          N/A
Creston          N/A     37  34  87 W1          N/A

...Western Montana...

CITY           SKY/WX    TMP DP  RH WIND       PRES   REMARKS
Kalispell      CLOUDY    32  31  96 W5        29.55S FOG     WCI  27
Missoula       CLOUDY    33  33 100 CALM      29.60R FOG

...Neighboring Cities...

CITY           SKY/WX    TMP DP  RH WIND       PRES   REMARKS
Seattle        CLOUDY    47  40  76 S12       29.50S
Portland       CLOUDY    41  37  86 E13       29.57S
Boise          PTCLDY    35  31  85 SE7       29.68S WCI  29
Great Falls    CLOUDY    39  28  64 S10       29.47R
Calgary        PTCLDY    41  18  38 W8        29.30R



USA.gov is the U.S. government's official web portal to all federal, state and local government web resources and services.